Location: Alfords
(31.4624°N, 83.9238°W)
Time: 03:59:14
(UTC+00:00)

Envisat - Pass Details

Date: 19 September 2021
Orbit: 764 x 766 km, 98.2° (Epoch: 15 October)

Event Time Altitude Azimuth Distance (km) Brightness Sun altitude
Rises 09:26:02 0° 37° (NE) 3,231 7.1 -25.2°
Reaches altitude 10° 09:29:36 10° 64° (ENE) 2,300 6.5 -24.4°
Maximum altitude 09:32:04 14° 93° (E) 2,057 6.1 -23.9°
Drops below altitude 10° 09:34:31 10° 123° (ESE) 2,293 6.0 -23.4°
Sets 09:38:02 0° 149° (SSE) 3,214 6.4 -22.7°
